www.pogodaiklimat.ru

Погода и климат >> Архив погоды >> Россия >> Приморский край >> Тимирязевский


АРХИВ ПОГОДЫ в Тимирязевском

Время (UTC), дата Ветер
(напр.,м/с)
 
Видим.   Явления Облачность Т
(С)
Тd
(С)
f
(%)
Тe
(С)
Тes
(С)
Комфортность P
(гПа)
Po
(гПа)
Тmin
(С)
Tmax
(С)
R
(мм)
R24
(мм)
S
(см)
03 20.05 ЮЗ 3
{15}
4000 м слаб. ливневой дождь 10/10 300 м
[Cb cap]
+13.7 +13.6 99 +12 +12 993.2 989.1
06 20.05 Ю 3 20 км {ливн. осадки} 10/10 300 м
[Sc diur, vesp]
+14.0 +12.8 92 +13 +13 993.1 989.0
09 20.05 Ю 4 10 км 10/8 300 м
[Sc diur, vesp Ci fib]
+14.9 +12.3 84 +14 +14 992.7 988.6 +15.9 21
12 20.05 Ю 4 10 км 3/3 1000 м
[Sc diur, vesp]
+12.3 +10.4 88 +10 +10 994.7 990.5
15 20.05 Ю 4 10 км ясно +10.2 +9.6 96 +7 +7 994.9 990.7
18 20.05 Ю 2 10 км ясно +8.7 +8.3 97 +7 +7 994.9 990.7
21 20.05 Ю 5 20 км 3/0
[Ci fib]
+9.6 +7.1 84 +6 +7 994.8 990.6 +8.3
00 21.05 Ю 5
{11}
50 км 10/0
[Ci fib]
+15.4 +6.7 56 +14 +19 994.1 990.0
03 21.05 Ю 6-11
{12}
50 км 10/8 600 м
[Cb cap Ci fib]
+18.5 +5.6 43 +18 +19 993.0 988.9
06 21.05 Ю 6-14
{15}
50 км {ливн. осадки} 10/6 600 м
[Cb cap Ci fib]
+16.9 +5.2 46 +16 +18 992.6 988.5
09 21.05 Ю 4
{14}
50 км {ливн. осадки} 10/8 600 м
[Cb cap Ci fib]
+14.8 +7.5 62 +14 +14 994.5 990.4 +19.8 3
12 21.05 Ю 2 50 км {ливн. осадки} 10/3 1000 м
[Sc diur, vesp Ci fib]
+11.9 +7.4 74 +11 +11 995.9 991.8
15 21.05 Ю 2 50 км 3/3 1000 м
[Sc diur, vesp]
+10.7 +7.1 78 +9 +9 996.4 992.2
18 21.05 Ю 2 50 км ясно +10.6 +8.3 86 +9 +9 995.8 991.6
21 21.05 Ю 2 50 км 10/10 1000 м
[Sc]
+10.6 +8.5 87 +9 +9 996.3 992.1 +10.0
00 22.05 ЮЗ 2 50 км 8/8 600 м
[Cb cap]
+14.8 +7.2 60 +15 +17 997.1 993.0
03 22.05 Ю 3 50 км слаб. ливневой дождь 10/10 600 м
[Cb cap]
+15.1 +6.9 58 +15 +15 997.4 993.2
06 22.05 ЮВ 1 20 км слаб. ливневой дождь 10/10 600 м
[Cb cap]
+12.4 +11.0 91 +12 +12 998.2 994.0
09 22.05 З 5 50 км {ливн. осадки} 10/8 600 м
[Cb cap Ci fib]
+14.9 +8.3 65 +14 +14 999.2 995.0 +16.5 3
12 22.05 ЮЗ 2 50 км {ливн. осадки} 9/8 600 м
[Cb cap Ci fib]
+12.9 +7.6 70 +12 +12 1001.6 997.4
15 22.05 Ю 2 50 км 10/10 1000 м
[Sc diur, vesp]
+11.1 +6.5 73 +10 +10 1002.2 998.0
18 22.05 СВ 1 50 км 1/1 1000 м
[Sc]
+7.8 +6.1 89 +7 +7 1003.4 999.1
21 22.05 СВ 1 50 км 10/8 600 м
[Cb cap Ci fib]
+8.5 +7.7 95 +8 +8 1005.1 1000.8 +6.6
00 23.05 СЗ 1 50 км 3/1 600 м
[Sc diur, vesp Ci fib]
+13.5 +6.9 64 +14 +25 опасность
простуды
1005.9 1001.7
03 23.05 С 3 50 км 4/4 1000 м
[Cu hum]
+17.7 +7.7 52 +18 +27 1005.9 1001.8
06 23.05 С 3 50 км 3/3 1000 м
[Cu hum]
+19.8 +6.9 43 +21 +28 комфорт 1005.7 1001.6
09 23.05 В 3 50 км 3/1 1000 м
[Cu hum Ci fib]
+19.8 +7.9 46 +21 +22 комфорт 1005.2 1001.1 +20.6
12 23.05 СВ 1 50 км ясно +12.9 +9.4 79 +13 +13 1006.9 1002.7
15 23.05 Ю 1 50 км ясно +10.7 +8.2 85 +10 +10 1007.9 1003.6
18 23.05 Ю 2 50 км 3/0
[Ci fib]
+8.6 +7.2 91 +7 +7 1008.5 1004.3
21 23.05 Ю 1 50 км 4/0
[Ci fib]
+9.3 +7.9 91 +9 +10 1008.6 1004.4 +7.9
00 24.05 Ю 5 50 км ясно +17.7 +8.2 54 +17 +23 1008.1 1004.0
03 24.05 Ю 5-10
{10}
50 км 10/0
[Ci fib]
+22.6 +8.5 40 +24 +32 комфорт 1006.5 1002.4
06 24.05 Ю 8-14
{15}
50 км 10/0
[Ci fib]
+22.3 +5.0 32 +23 +24 комфорт 1004.7 1000.6
09 24.05 Ю 5
{16}
50 км 10/3 600 м
[Sc Ac trans Ci fib]
+19.1 +5.3 40 +19 +20 1004.3 1000.2 +23.1
12 24.05 Ю 7-14
{16}
50 км 10/0
[Ci fib]
+16.2 +6.1 51 +15 +15 1004.3 1000.1
15 24.05 Ю 6-12
{16}
50 км 10/0
[Ci fib]
+15.5 +7.6 59 +14 +14 1004.4 1000.2
18 24.05 Ю 4
{12}
50 км ясно +12.9 +10.3 84 +11 +11 1004.6 1000.4
21 24.05 Ю 6-12
{12}
20 км 8/0
[Ci fib]
+13.4 +11.5 88 +11 +11 1005.1 1000.9 +12.7
00 25.05 Ю 6-12
{13}
20 км 10/0
[Ci fib]
+18.7 +12.8 69 +19 +22 1005.4 1001.3
03 25.05 Ю 6-12
{14}
20 км 10/0
[Ci fib]
+25.2 +12.6 45 +27 +33 жарко 1005.2 1001.2
06 25.05 Ю 4
{16}
20 км 10/0
[Cs]
+28.5 +13.5 40 +30 +37 жарко 1004.4 1000.5
09 25.05 Ю 3
{11}
20 км 10/3 1000 м
[Sc Ci fib]
+23.9 +10.2 42 +25 +26 комфорт 1005.1 1001.1 +28.8
12 25.05 Ю 5
{11}
20 км 9/4 600 м
[Cb cap Ci fib]
+18.7 +10.3 58 +19 +19 1006.7 1002.6
15 25.05 Ю 3
{11}
20 км 1/0
[Ci fib]
+17.0 +9.6 62 +17 +17 1007.4 1003.3
18 25.05 Ю 3 20 км 3/0
[Ac trans]
+16.3 +9.8 65 +16 +16 1008.1 1003.9
21 25.05 Ю 2 20 км 10/0
[Ac trans Ci fib]
+15.3 +10.4 73 +15 +16 1009.3 1005.1 +15.3
00 26.05 ЮВ 2 20 км 3/0
[Ci fib]
+23.5 +12.7 51 +26 +36 жарко 1009.4 1005.3
03 26.05 С 1 20 км 3/0
[Ci fib]
+31.2 +3.0 17 +29 +50 жарко 1007.8 1003.8
06 26.05 Ю 4 20 км 10/0
[Ci fib]
+32.0 +2.8 16 +29 +36 жарко 1005.3 1001.4
09 26.05 Ю 4
{11}
20 км 10/0
[Ci fib]
+27.2 +7.5 29 +27 +28 жарко 1004.9 1000.9 +32.3
12 26.05 Ю 5
{12}
20 км 8/4 1000 м
[Sc Ci fib]
+19.0 +6.8 45 +19 +19 1006.4 1002.3
15 26.05 Ю 5-10
{13}
20 км 4/0
[Ci fib]
+16.9 +7.7 55 +16 +16 1005.6 1001.5
18 26.05 Ю 7-10
{11}
20 км ясно +15.1 +8.8 66 +13 +13 1005.4 1001.2
21 26.05 Ю 5
{11}
10 км 10/4 1000 м
[Sc Ci fib]
+14.4 +10.0 75 +13 +13 1005.3 1001.1 +13.8
00 27.05 Ю 5
{12}
20 км 10/0
[Ac trans Ci fib]
+18.9 +11.9 64 +19 +23 1003.9 999.8

 

Местоположение метеостанции Тимирязевский (Приморский край, Россия): широта 43.88 долгота 131.90 высота над уровнем моря 36 м.

В архиве по умолчанию представлена погода в Тимирязевском за последнюю неделю. Архивные данные за месяц целиком и за предыдущие месяцы, начиная с января 2011 года, Вы можете получить, выбрав интересующий диапазон дат из раскрывающегося списка и нажав кнопку "Ввод!".


*Определитесь, кто Вы:
робот инопланетянин человек

Внимание! Время в таблицах - всемирное. Для получения местного времени необходимо прибавить поправку, которая равна 10 ч.

Смотрите также архив погоды в соседних городах и на ближайших метеорологических станциях:

Погода в Полтавке (Приморский край, Россия) (51 км)
Погода в Хороле (Приморский край, Россия) (62 км)
Погода в Многоудобном (Приморский край, Россия) (65 км)
Погода в Пограничном (Приморский край, Россия) (75 км)
Погода в Суйфэньхэ (Хэйлунцзян, Китай) (82 км)
Погода в Владивостоке (Приморский край, Россия) (85 км)
Погода в Барабаше (Приморский край, Россия) (86 км)
Погода в Анучино (Приморский край, Россия) (89 км)
Погода на Мысе Назимова (Приморский край, Россия) (92 км)
Погода в Астраханке (Приморский край, Россия) (94 км)

Пояснения к столбцам:

Ветер - указаны скорость ветра в м/с - средняя за 10 мин, порывы в срок и между сроками (в фигурных скобках) и направление, откуда дует ветер: С - северный, СВ - северо-восточный, В - восточный, ЮВ - юго-восточный, Ю - южный, ЮЗ - юго-западный, З - западный, СЗ - северо-западный.
Видимость - горизонтальная дальность видимости в метрах или километрах. При видимости от 1 до 10 км при отсутствии осадков обычно наблюдается дымка, при ухудшении видимости до 1 км и менее - туман. В сухую погоду видимость может ухудшаться дымом, пылью или мглою.
Явления - указаны атмосферные явления, наблюдавшиеся в срок или в последний час перед сроком; фигурными скобками обозначены явления, наблюдавшиеся между сроками (за 1-3 часа до срока); квадратными скобками обозначены град или гололедные отложения с указанием их диаметра в мм.
Облачность - указаны через наклонную черту общая и нижняя облачность в баллах и высота нижней границы облаков в метрах; квадратными скобками обозначены формы облаков: Ci - перистые, Cs - перисто-слоистые, Cc - перисто-кучевые, Ac - высококучевые, As - высокослоистые, Sc - слоисто-кучевые, Ns - слоисто-дождевые, Cu - кучевые, Cb - кучево-дождевые. Подробнее классификацию облаков см. в Атласе облаков (PDF).
T - Температура воздуха - температура, измеренная на высоте 2 м над землей.
Td - Температура точки росы - температура, при понижении до которой содержащийся в воздухе водяной пар достигнет насыщения.
f - Относительная влажность воздуха - влажноcть воздуха, измеренная на высоте 2 м над землей.
Te - Эффективная температура - температура, которую ощущает одетый по сезону человек в тени. Характеристика душности погоды. При расчете учитывается влияние влажности воздуха и скорости ветра на теплоощущения человека.
Tes - Эффективная температура на солнце - температура, которую ощущает человек, с поправкой на солнечный нагрев. Характеристика знойности погоды. Зависит от высоты солнца над горизонтом, облачности и скорости ветра. Ночью, в пасмурную погоду, а также при ветре 12 м/с и более поправка равна нулю.
P - Атмосферное давление - приведенное к уровню моря атмосферное давление.
Po - Атмосферное давление - измеренное на уровне метеостанции атмосферное давление.
Tmin - Минимальная температура - минимум температуры воздуха на высоте 2 м над землей.
Tmax - Максимальная температура - максимум температуры воздуха на высоте 2 м над землей.
R - Количество осадков - Количество выпавших осадков за период времени, мм. При наведении курсора мыши на число - период времени, за который выпало указанное количество осадков.
R24 - Количество осадков - Количество выпавших осадков за 24 часа, мм.
S - Снежный покров - Высота снежного покрова, см. При наведении курсора мыши на число - состояние снежного покрова и степень покрытия местности в баллах.